PROFILE

 METAR AND TAF INFORMATION
ADDS - METARS form results

(0545 UTC 22 September 2019)
http://aviationweather.gov/metar/data/
 
LFMN 220530Z 01003KT 330V060 9999 FEW033 BKN070 19/17 Q1014 NOSIG
LFMN 220500Z 33004KT 280V010 9999 FEW033 BKN070 19/17 Q1014 NOSIG
TAF LFMN 220200Z 2203/2309 03012KT 9999 RA BKN050 PROB40 TEMPO 2203/2210 VRB20G30KT 2000 TSRA SCT010 BKN020CB TEMPO 2212/2308 BKN012 BECMG 2213/2215 NSW BECMG 2216/2218 09005KT TEMPO 2300/2303 VRB20G30KT 2000 TSRA SCT010 BKN020CB 

 AIRPORT MAP

 RUNWAY INFORMATION
Runway 04L Runway length 8995 ft Runway width 148 ft
Runway elevation 10 ft Runway displaced threshold 0 ft Runway heading 45
Runway 22R Runway length 8995 ft Runway width 148 ft
Runway elevation 10 ft Runway displaced threshold 575 ft Runway heading 225
Runway 04R Runway length 9712 ft Runway width 148 ft
Runway elevation 10 ft Runway displaced threshold 0 ft Runway heading 45
Runway 22L Runway length 9712 ft Runway width 148 ft
Runway elevation 12 ft Runway displaced threshold 0 ft Runway heading 225

 AIRPORT FREQUENCIES
Type A/D Name NICE APP Frequency 124.175 MHZ
Type ATIS Name NICE ATIS Frequency 129.6 MHZ
Type GND Name NICE GND Frequency 121.775 MHZ
Type TWR Name NICE TWR Frequency 118.7 MHZ

 AIRPORT NEAR NAVIGATION AIDS
Type VOR-DME Name Nice Cote D Azur Frequency 109650 KHZ
Type VOR-DME Name Cagnes Sur Mer Frequency 109200 KHZ
Type NDB Name Nice Frequency 399 KHZ
Type VOR-DME Name Nice Frequency 112400 KHZ